Weather History for Miramar MCAS, CA

Change the Weather History Date:

Wednesday, December 11, 2013

  Actual Average Record
Temperature  
Mean Temperature 56 °F -  
Max Temperature 69 °F 64 °F 77 °F (2004)
Min Temperature 43 °F 43 °F 35 °F (1999)
Degree Days  
Heating Degree Days 9    
Growing Degree Days 6 (Base 50)    
Moisture  
Dew Point 26 °F    
Average Humidity 41    
Maximum Humidity 86    
Minimum Humidity 9    
Precipitation  
Precipitation 0.00 in - - ()
Sea Level Pressure  
Sea Level Pressure 30.11 in    
Wind  
Wind Speed 4 mph (ENE)    
Max Wind Speed 9 mph    
Max Gust Speed -    
Visibility 10 miles    
Events      
Averages and records for this station are not official NWS values.
T = Trace of Precipitation, MM = Missing Value Source: NWS Daily Summary

Daily Weather History Graph

Daily Weather History Graph

Search for Another Location

Airport:

Trip Planner

Search our weather history database for the weather conditions in past years. The results will help you decide how hot, cold, wet, or windy it might be!

Date:

Astronomy

Dec. 11, 2013 Rise Set
Actual Time 6:41 AM PST 4:42 PM PST
Civil Twilight 6:14 AM PST 5:09 PM PST
Nautical Twilight 5:43 AM PST 5:40 PM PST
Astronomical Twilight 5:13 AM PST 6:10 PM PST
Moon 1:06 PM PST (12/11) 1:21 AM PST (12/11)
Length of Visible Light 10h 55m
Length of Day
10h 01m
Waxing Gibbous, 72% of the Moon is Illuminated
Dec 11
Waxing Gibbous
Dec 17
Full
Dec 25
Last Quarter
Jan 1
New
Jan 7
First Quarter

Hourly Weather History & Observations

Time (PST) Temp. Windchill Dew Point Humidity Pressure Visibility Wind Dir Wind Speed Gust Speed Precip Events Conditions
12:55 AM 52.0 °F - 21.0 °F 30% 30.09 in 10.0 mi SE 3.5 mph - N/A   Mostly Cloudy
1:55 AM 48.9 °F - 30.0 °F 48% 30.07 in 10.0 mi East 3.5 mph - N/A   Mostly Cloudy
2:55 AM 46.0 °F - 27.0 °F 47% 30.08 in 10.0 mi Calm Calm - N/A   Mostly Cloudy
3:55 AM 46.9 °F - 26.1 °F 44% 30.07 in 10.0 mi East 5.8 mph - N/A   Mostly Cloudy
4:55 AM 46.0 °F 41.9 °F 28.0 °F 50% 30.07 in 10.0 mi ENE 8.1 mph - N/A   Mostly Cloudy
5:55 AM 44.1 °F - 25.0 °F 47% 30.10 in 10.0 mi Calm Calm - N/A   Mostly Cloudy
6:55 AM 43.0 °F 39.5 °F 23.0 °F 45% 30.12 in 10.0 mi East 5.8 mph - N/A   Mostly Cloudy
7:55 AM 54.0 °F - 21.0 °F 28% 30.13 in 10.0 mi ENE 6.9 mph - N/A   Scattered Clouds
8:55 AM 61.0 °F - 17.1 °F 18% 30.14 in 10.0 mi NNE 3.5 mph - N/A   Scattered Clouds
9:55 AM 63.0 °F - 9.0 °F 12% 30.13 in 10.0 mi NW 3.5 mph - N/A   Scattered Clouds
10:55 AM 68.0 °F - 7.0 °F 9% 30.12 in 10.0 mi Variable 3.5 mph - N/A   Scattered Clouds
11:55 AM 68.0 °F - 12.9 °F 12% 30.10 in 10.0 mi Variable 6.9 mph - N/A   Scattered Clouds
12:55 PM 69.1 °F - 21.0 °F 16% 30.09 in 10.0 mi NW 9.2 mph - N/A   Scattered Clouds
1:55 PM 66.9 °F - 19.9 °F 17% 30.09 in 10.0 mi West 6.9 mph - N/A   Scattered Clouds
2:55 PM 64.0 °F - 19.0 °F 18% 30.10 in 10.0 mi NW 6.9 mph - N/A   Mostly Cloudy
3:55 PM 61.0 °F - 18.0 °F 19% 30.11 in 10.0 mi West 4.6 mph - N/A   Mostly Cloudy
4:55 PM 55.9 °F - 26.1 °F 32% 30.13 in 10.0 mi WSW 4.6 mph - N/A   Mostly Cloudy
5:55 PM 55.0 °F - 34.0 °F 45% 30.14 in 10.0 mi Calm Calm - N/A   Mostly Cloudy
6:55 PM 54.0 °F - 43.0 °F 66% 30.14 in 10.0 mi Calm Calm - N/A   Mostly Cloudy
7:55 PM 54.0 °F - 43.0 °F 66% 30.14 in 10.0 mi NE 4.6 mph - N/A   Mostly Cloudy
8:55 PM 50.0 °F - 42.1 °F 74% 30.15 in 10.0 mi Calm Calm - N/A   Partly Cloudy
9:55 PM 45.0 °F 43.5 °F 39.9 °F 82% 30.15 in 10.0 mi ESE 3.5 mph - N/A   Scattered Clouds
10:55 PM 45.0 °F 42.6 °F 41.0 °F 86% 30.15 in 10.0 mi ESE 4.6 mph - N/A   Partly Cloudy
11:55 PM 44.1 °F 40.1 °F 37.9 °F 79% 30.14 in 10.0 mi East 6.9 mph - N/A   Partly Cloudy